{"data":{"norad_id":36792,"epoch":"2026-05-25T03:42:38.615040Z","epoch_age_seconds":58112,"freshness":"FRESH","line1":"1 36792U 10034A   26145.15461360 -.00000003  00000+0  00000+0 0  9991","line2":"2 36792   0.0384  85.5004 0001912 319.9880 134.1172  1.00272266 58094","mean_motion":1.00272266,"eccentricity":0.0001912,"inclination_deg":0.0384,"raan_deg":85.5004,"arg_perigee_deg":319.988,"mean_anomaly_deg":134.1172,"bstar":0,"rev_number":5809,"period_min":1436.0900151593,"perigee_km":35778.398249,"apogee_km":35794.521990938,"semimajor_km":42164.597119969,"source":"CELESTRAK","updated_at":"2026-05-25T13:38:13.894023Z"}}